• In Latvia
  • List of Countries
  • For 7 days
  • Water Temperature
  • Satellite Maps
  • Weather Map
  • Weather Widgets
  • user-avatar
    Login

    Hourly Weather Satif

    Today, 11 December, Sunday

    Time Temperature Precipitation Wind Pressure Humidity
    00:00 +6°C° 0 mm 1 mps 677 mmHg 91%
    01:00 +6°C° 0 mm 1 mps 676 mmHg 91%
    02:00 +6°C° 0 mm 1 mps 676 mmHg 92%
    03:00 +6°C° 0 mm 1 mps 676 mmHg 92%
    04:00 +5°C° 0 mm 1 mps 676 mmHg 92%
    05:00 +5°C° 0 mm 1 mps 676 mmHg 92%
    06:00 +5°C° 0 mm 1 mps 675 mmHg 93%
    07:00 +7°C° 0 mm 1 mps 676 mmHg 86%
    08:00 +9°C° 0 mm 1 mps 677 mmHg 79%
    09:00 +11°C° 0 mm 1 mps 677 mmHg 71%
    10:00 +12°C° 0 mm 1 mps 677 mmHg 66%
    11:00 +13°C° 0 mm 1 mps 677 mmHg 60%
    12:00 +14°C° 0 mm 1 mps 677 mmHg 55%
    13:00 +14°C° 0 mm 1 mps 677 mmHg 57%
    14:00 +14°C° 0 mm 1 mps 676 mmHg 59%
    15:00 +13°C° 0 mm 1 mps 676 mmHg 61%
    16:00 +11°C° 0 mm 1 mps 675 mmHg 70%
    17:00 +9°C° 0 mm 1 mps 675 mmHg 79%
    18:00 +7°C° 0 mm 1 mps 674 mmHg 88%
    19:00 +6°C° 0 mm 0 mps 674 mmHg 90%
    20:00 +5°C° 0 mm 0 mps 674 mmHg 91%
    21:00 +5°C° 0 mm 0 mps 674 mmHg 93%
    22:00 +4°C° 0 mm 0 mps 674 mmHg 93%
    23:00 +4°C° 0 mm 0 mps 674 mmHg 93%

    Tomorrow, 12 December, Monday

    Time Temperature Precipitation Wind Pressure Humidity
    00:00 +4°C° 0 mm 0 mps 673 mmHg 94%
    01:00 +3°C° 0 mm 0 mps 673 mmHg 94%
    02:00 +3°C° 0 mm 0 mps 673 mmHg 94%
    03:00 +3°C° 0 mm 0 mps 673 mmHg 94%
    04:00 +3°C° 0 mm 0 mps 673 mmHg 94%
    05:00 +2°C° 0 mm 0 mps 673 mmHg 94%
    06:00 +3°C° 0 mm 1 mps 673 mmHg 94%
    07:00 +6°C° 0 mm 1 mps 674 mmHg 86%
    08:00 +7°C° 0 mm 0 mps 674 mmHg 79%
    09:00 +9°C° 0 mm 0 mps 675 mmHg 71%
    10:00 +11°C° 0 mm 1 mps 675 mmHg 63%
    11:00 +13°C° 0 mm 1 mps 676 mmHg 55%
    12:00 +14°C° 0 mm 1 mps 676 mmHg 48%
    13:00 +13°C° 0 mm 1 mps 675 mmHg 49%
    14:00 +13°C° 0 mm 1 mps 675 mmHg 51%
    15:00 +13°C° 0 mm 1 mps 675 mmHg 53%
    16:00 +10°C° 0 mm 1 mps 674 mmHg 63%
    17:00 +8°C° 0 mm 1 mps 674 mmHg 73%
    18:00 +6°C° 0 mm 1 mps 674 mmHg 84%
    19:00 +5°C° 0 mm 1 mps 674 mmHg 86%
    20:00 +5°C° 0 mm 1 mps 674 mmHg 89%
    21:00 +3°C° 0 mm 0 mps 674 mmHg 91%
    22:00 +3°C° 0 mm 0 mps 674 mmHg 92%
    23:00 +3°C° 0 mm 0 mps 674 mmHg 92%

    Day after tomorrow, 13 December, Tuesday

    Time Temperature Precipitation Wind Pressure Humidity
    00:00 +2°C° 0 mm 0 mps 674 mmHg 92%
    01:00 +2°C° 0 mm 0 mps 674 mmHg 92%
    02:00 +2°C° 0 mm 0 mps 674 mmHg 92%
    03:00 +2°C° 0 mm 0 mps 674 mmHg 92%
    04:00 +1°C° 0 mm 0 mps 674 mmHg 92%
    05:00 +1°C° 0 mm 0 mps 673 mmHg 92%
    06:00 +1°C° 0 mm 0 mps 673 mmHg 92%
    07:00 +3°C° 0 mm 0 mps 675 mmHg 83%
    08:00 +6°C° 0 mm 0 mps 676 mmHg 74%
    09:00 +9°C° 0 mm 0 mps 677 mmHg 65%
    10:00 +10°C° 0 mm 0 mps 677 mmHg 58%
    11:00 +12°C° 0 mm 0 mps 677 mmHg 51%
    12:00 +13°C° 0 mm 0 mps 677 mmHg 44%
    13:00 +14°C° 0 mm 1 mps 677 mmHg 46%
    14:00 +13°C° 0 mm 1 mps 676 mmHg 48%
    15:00 +13°C° 0 mm 1 mps 676 mmHg 50%
    16:00 +10°C° 0 mm 1 mps 676 mmHg 60%
    17:00 +7°C° 0 mm 0 mps 675 mmHg 71%
    18:00 +4°C° 0 mm 0 mps 674 mmHg 81%
    19:00 +4°C° 0 mm 0 mps 674 mmHg 83%
    20:00 +4°C° 0 mm 0 mps 674 mmHg 84%
    21:00 +3°C° 0 mm 0 mps 675 mmHg 85%
    22:00 +4°C° 0 mm 1 mps 674 mmHg 85%
    23:00 +4°C° 0 mm 1 mps 674 mmHg 84%

    14 December, Wednesday

    Time Temperature Precipitation Wind Pressure Humidity
    00:00 +4°C° 0 mm 1 mps 674 mmHg 83%
    01:00 +4°C° 0 mm 1 mps 674 mmHg 83%
    02:00 +4°C° 0 mm 1 mps 674 mmHg 83%
    03:00 +3°C° 0 mm 1 mps 674 mmHg 83%
    04:00 +3°C° 0 mm 1 mps 674 mmHg 83%
    05:00 +3°C° 0 mm 1 mps 674 mmHg 83%
    06:00 +3°C° 0 mm 1 mps 674 mmHg 83%
    07:00 +5°C° 0 mm 1 mps 674 mmHg 75%
    08:00 +7°C° 0 mm 1 mps 675 mmHg 67%
    09:00 +9°C° 0 mm 1 mps 676 mmHg 59%
    10:00 +11°C° 0 mm 1 mps 676 mmHg 53%
    11:00 +12°C° 0 mm 1 mps 676 mmHg 47%
    12:00 +14°C° 0 mm 1 mps 676 mmHg 41%
    13:00 +13°C° 0 mm 1 mps 675 mmHg 44%
    14:00 +13°C° 0 mm 1 mps 675 mmHg 46%
    15:00 +12°C° 0 mm 1 mps 674 mmHg 49%
    16:00 +10°C° 0 mm 1 mps 674 mmHg 59%
    17:00 +8°C° 0 mm 1 mps 673 mmHg 69%
    18:00 +5°C° 0 mm 1 mps 673 mmHg 79%
    19:00 +4°C° 0 mm 0 mps 673 mmHg 81%
    20:00 +3°C° 0 mm 0 mps 673 mmHg 82%
    21:00 +3°C° 0 mm 0 mps 673 mmHg 84%
    22:00 +3°C° 0 mm 0 mps 672 mmHg 85%
    23:00 +3°C° 0 mm 0 mps 672 mmHg 85%

    15 December, Thursday

    Time Temperature Precipitation Wind Pressure Humidity
    00:00 +2°C° 0 mm 0 mps 672 mmHg 85%
    01:00 +2°C° 0 mm 0 mps 672 mmHg 86%
    02:00 +2°C° 0 mm 0 mps 671 mmHg 86%
    03:00 +1°C° 0 mm 0 mps 671 mmHg 87%
    04:00 +1°C° 0 mm 0 mps 671 mmHg 87%
    05:00 +1°C° 0 mm 0 mps 671 mmHg 87%
    06:00 +1°C° 0 mm 0 mps 671 mmHg 87%
    07:00 +3°C° 0 mm 0 mps 672 mmHg 76%
    08:00 +6°C° 0 mm 0 mps 673 mmHg 65%
    09:00 +8°C° 0 mm 0 mps 674 mmHg 55%
    10:00 +9°C° 0 mm 0 mps 674 mmHg 50%
    11:00 +11°C° 0 mm 0 mps 674 mmHg 44%
    12:00 +13°C° 0 mm 1 mps 674 mmHg 39%
    13:00 +13°C° 0 mm 1 mps 674 mmHg 42%
    14:00 +12°C° 0 mm 1 mps 673 mmHg 44%
    15:00 +12°C° 0 mm 1 mps 673 mmHg 47%
    16:00 +10°C° 0 mm 1 mps 673 mmHg 57%
    17:00 +8°C° 0 mm 1 mps 672 mmHg 67%
    18:00 +5°C° 0 mm 1 mps 672 mmHg 77%
    19:00 +5°C° 0 mm 1 mps 672 mmHg 80%
    20:00 +5°C° 0 mm 1 mps 672 mmHg 83%
    21:00 +4°C° 0 mm 1 mps 672 mmHg 86%
    22:00 +4°C° 0 mm 1 mps 672 mmHg 87%
    23:00 +3°C° 0 mm 0 mps 672 mmHg 88%

    16 December, Friday

    Time Temperature Precipitation Wind Pressure Humidity
    00:00 +2°C° 0 mm 0 mps 672 mmHg 89%
    01:00 +2°C° 0 mm 0 mps 671 mmHg 89%
    02:00 +2°C° 0 mm 0 mps 671 mmHg 89%
    03:00 +1°C° 0 mm 0 mps 671 mmHg 89%
    04:00 +1°C° 0 mm 0 mps 671 mmHg 90%
    05:00 +1°C° 0 mm 0 mps 671 mmHg 90%
    06:00 0°C° 0 mm 0 mps 671 mmHg 90%
    07:00 +3°C° 0 mm 0 mps 671 mmHg 81%
    08:00 +5°C° 0 mm 0 mps 672 mmHg 72%
    09:00 +7°C° 0 mm 0 mps 673 mmHg 63%
    10:00 +9°C° 0 mm 0 mps 673 mmHg 58%
    11:00 +11°C° 0 mm 1 mps 673 mmHg 52%
    12:00 +12°C° 0 mm 1 mps 672 mmHg 46%
    13:00 +12°C° 0 mm 1 mps 672 mmHg 49%
    14:00 +11°C° 0 mm 1 mps 672 mmHg 51%
    15:00 +11°C° 0 mm 1 mps 672 mmHg 54%
    16:00 +9°C° 0 mm 1 mps 671 mmHg 63%
    17:00 +7°C° 0 mm 1 mps 671 mmHg 72%
    18:00 +6°C° 0 mm 1 mps 671 mmHg 81%
    19:00 +5°C° 0 mm 1 mps 671 mmHg 84%
    20:00 +5°C° 0 mm 1 mps 671 mmHg 87%
    21:00 +5°C° 0 mm 1 mps 671 mmHg 90%
    22:00 +4°C° 0 mm 1 mps 671 mmHg 91%
    23:00 +4°C° 0 mm 1 mps 671 mmHg 92%
    Show more